Location: *
(10.4782°N, 67.2163°W)
Time: 23:47:53
(UTC+00:00)

IUS R/B (1) - Pass Details

Date: 23 May 2024
Orbit: 341 x 34265 km, 28.7° (Epoch: 11 June)

Event Time Altitude Azimuth Distance (km) Brightness Sun altitude
Rises 00:28:32 0° 313° (NW) 2,568 7.0 -24.0°
Reaches altitude 10° 00:29:54 10° 322° (NW) 1,995 6.0 -24.2°
Maximum altitude 00:33:48 45° 38° (NE) 1,555 4.4 -25.1°
Enters shadow 00:37:25 33° 86° (E) 2,840 5.4 -25.9°
